Flag for Switzerland Weather past 2 weeks in Lausanne, Vaud, Switzerland

Now
72 °F

Mild.


Feels Like: 76 °F
Forecast: 49 / 73 °F
Wind: 6 mph from Northwest

Location: Aigle

Current Time: May 28, 2015 at 6:55:27 PM

Latest Report: May 28, 2015 at 6:00 PM


Visibility: N/A

Pressure: 29.96 "Hg

Humidity: 25%

Dew point: 34 °F

Location of LausanneLocation

Historic Weather in Lausanne — Graph

°F

Lausanne temperature yesterday

Maximum temperature yesterday: 66 °F (at 5:00 PM)
Minimum temperature yesterday: 46 °F (at 6:00 AM)
Average temperature yesterday: 57 °F

Past Weeks' High & Low Weather Summary

 TemperatureHumidityPressure
High80 °F (May 13, 6:00 PM)98% (May 26, 2:00 AM)30.30 "Hg (May 26, 2:00 AM)
Low42 °F (May 24, 6:00 AM)28% (May 28, 5:00 PM)29.73 "Hg (May 18, 7:00 PM)
Average57 °F69%30.04 "Hg
* Reported May 13 5:00 PM — May 28 5:00 PM, Lausanne, Weather by CustomWeather, © 2015

Note: Actual official high and low records may vary slightly from our data, if they occured in-between our weather recording intervals... More about our weather records

Advertising

Lausanne weather history for previous 24 hours

 ConditionsComfort  
Time TempWeatherWind HumidityBarometerVisibility
5:00 PM
Thu, May 28
71 °FScattered clouds.6 mph28%29.98 "Hg19 mi
4:00 PM68 °FMild.9 mph36%30.01 "HgN/A
3:00 PM67 °FMild.12 mph42%30.03 "HgN/A
2:00 PM65 °FScattered clouds.8 mph47%30.05 "Hg19 mi
1:00 PM63 °FMild.10 mph50%30.07 "HgN/A
12:00 PM61 °FRefreshingly cool.9 mph58%30.09 "HgN/A
11:00 AM61 °FPassing clouds.6 mph67%30.11 "HgN/A
10:00 AM57 °FCool.9 mph67%30.13 "HgN/A
9:00 AM55 °FCool.3 mph71%30.13 "HgN/A
8:00 AM50 °FPassing clouds.No wind83%30.14 "Hg22 mi
7:00 AM46 °FCool.2 mph88%30.16 "HgN/A
6:00 AM44 °FQuite cool.1 mph91%30.16 "HgN/A
5:00 AM45 °FPassing clouds.5 mph90%30.15 "Hg9 mi
4:00 AM44 °FQuite cool.1 mph93%30.16 "HgN/A
3:00 AM44 °FQuite cool.2 mph93%30.16 "HgN/A
2:00 AM47 °FCool.2 mph87%30.15 "HgN/A
1:00 AM47 °FCool.2 mph88%30.16 "HgN/A
12:00 AM50 °FCool.2 mph81%30.15 "HgN/A
10:00 PM
Wed, May 27
55 °FCool.2 mph66%30.13 "HgN/A
9:00 PM59 °FRefreshingly cool.5 mph51%30.11 "HgN/A
8:00 PM61 °FPassing clouds.8 mph45%30.09 "Hg16 mi
7:00 PM64 °FMild.15 mph44%30.09 "HgN/A
6:00 PM65 °FMild.13 mph43%30.08 "HgN/A
Weather by CustomWeather, © 2015

See weather overviewHow to use our weather pages